This demonstration page uses our WeatherBlox Daily Observations layout. Learn more.

Left ArrowRight Arrow

39.95238, -75.16362

Hourly Observations for May 7, 2015

Temp ( °F °C ) Dew Point ( °F °C ) Humidity (%) Winds ( mph kmh ) Pressure ( in mb ) Visibility ( mi km ) Precip ( " mm )
12:54 am 00:54 Mostly Clear 58 14.4 51 10.6 78 78 ENE 5 7 30.24 1024 10 16 0.00 0.00
1:54 am 01:54 Partly Cloudy 58 14.4 50 10 75 75 NE 3 6 30.23 1024 10 16 0.00 0.00
2:54 am 02:54 Mostly Cloudy 58 14.4 51 10.6 78 78 E 5 7 30.22 1023 10 16 0.00 0.00
3:54 am 03:54 Cloudy 58 14.4 51 10.6 78 78 NE 3 6 30.22 1023 10 16 0.00 0.00
4:54 am 04:54 Mostly Cloudy 59 15 50 10 72 72 E 5 7 30.21 1023 10 16 0.00 0.00
5:54 am 05:54 Cloudy 59 15 52 11.1 78 78 ENE 3 6 30.20 1023 10 16 0.00 0.00
6:54 am 06:54 Mostly Cloudy 61 16.1 51 10.6 70 70 NE 5 7 30.21 1023 10 16 0.00 0.00
7:54 am 07:54 Mostly Cloudy 62 16.7 51 10.6 67 67 ENE 7 11 30.23 1024 10 16 0.00 0.00
8:54 am 08:54 Mostly Cloudy 64 17.8 50 10 60 60 E 5 7 30.24 1024 10 16 0.00 0.00
9:54 am 09:54 Mostly Cloudy 68 20 49 9.4 51 51 ESE 5 7 30.24 1024 10 16 0.00 0.00
10:54 am 10:54 Mostly Cloudy 72 22.2 49 9.4 44 44 VRB 3 6 30.23 1024 10 16 0.00 0.00
11:54 am 11:54 Mostly Sunny 75 23.9 48 8.9 39 39 Calm 30.22 1023 10 16 0.00 0.00
12:54 pm 12:54 Mostly Sunny 75 23.9 49 9.4 40 40 WSW 3 6 30.20 1023 10 16 0.00 0.00
1:54 pm 13:54 Mostly Sunny 78 25.6 50 10 37 37 Calm 30.18 1022 10 16 0.00 0.00
2:54 pm 14:54 Mostly Sunny 81 27.2 52 11.1 37 37 VRB 6 9 30.16 1021 10 16 0.00 0.00
3:54 pm 15:54 Mostly Sunny 80 26.7 52 11.1 38 38 W 5 7 30.14 1021 10 16 0.00 0.00
4:54 pm 16:54 Partly Cloudy 79 26.1 55 12.8 44 44 W 12 19 30.12 1020 10 16 0.00 0.00
5:54 pm 17:54 Partly Cloudy 79 26.1 55 12.8 44 44 SW 9 15 30.12 1020 10 16 0.00 0.00
6:54 pm 18:54 Mostly Sunny 78 25.6 55 12.8 45 45 SW 9 15 30.11 1020 10 16 0.00 0.00
7:54 pm 19:54 Mostly Sunny 74 23.3 56 13.3 54 54 S 12 19 30.12 1020 10 16 0.00 0.00
8:54 pm 20:54 Clear 70 21.1 53 11.7 55 55 S 10 17 30.13 1020 10 16 0.00 0.00
9:54 pm 21:54 Clear 68 20 54 12.2 61 61 S 5 7 30.15 1021 10 16 0.00 0.00
10:54 pm 22:54 Clear 65 18.3 53 11.7 66 66 S 5 7 30.15 1021 10 16 0.00 0.00
11:54 pm 23:54 Clear 64 17.8 54 12.2 70 70 S 3 6 30.15 1021 10 16 0.00 0.00

Powered by AerisWeather